| time (UTC) | temp F | wind direction | speed knots | gust knots | rain 1hr in | rain 24hr in | rain mn in | humidity % | barometer mb |
| 20260902174046 | 95 | 82 | 0.0 | 6.1 | 0.00 | 0.00 | 0.00 | 47 | 1018.0 |
| 20260902173543 | 95 | 138 | 2.6 | 6.1 | 0.00 | 0.00 | 0.00 | 45 | 1018.2 |
| 20260902173042 | 95 | 182 | 0.0 | 3.5 | 0.00 | 0.00 | 0.00 | 48 | 1018.1 |
| 20260902172542 | 95 | 192 | 1.7 | 5.2 | 0.00 | 0.00 | 0.00 | 46 | 1018.2 |
| 20260902172044 | 96 | 198 | 2.6 | 5.2 | 0.00 | 0.00 | 0.00 | 43 | 1018.2 |
| 20260902171543 | 96 | 183 | 1.7 | 5.2 | 0.00 | 0.00 | 0.00 | 44 | 1018.3 |
| 20260902171040 | 96 | 15 | 0.9 | 3.5 | 0.00 | 0.00 | 0.00 | 44 | 1018.3 |
| 20260902170510 | 97 | 165 | 0.9 | 4.3 | 0.00 | 0.00 | 0.00 | 48 | 1018.5 |
| 20260902170009 | 96 | 293 | 1.7 | 8.7 | 0.00 | 0.00 | 0.00 | 45 | 1018.5 |
| 20260902165509 | 96 | 279 | 4.3 | 8.7 | 0.00 | 0.00 | 0.00 | 45 | 1018.6 |
| 20260902165011 | 96 | 220 | 0.9 | 6.1 | 0.00 | 0.00 | 0.00 | 48 | 1018.6 |
| 20260902164513 | 96 | 257 | 2.6 | 6.1 | 0.00 | 0.00 | 0.00 | 50 | 1018.7 |
| 20260902164006 | 96 | 294 | 1.7 | 7.0 | 0.00 | 0.00 | 0.00 | 49 | 1018.8 |
| 20260902163503 | 95 | 288 | 1.7 | 7.8 | 0.00 | 0.00 | 0.00 | 49 | 1018.9 |
| 20260902163002 | 94 | 335 | 0.9 | 9.6 | 0.00 | 0.00 | 0.00 | 50 | 1018.9 |
| 20260902162502 | 94 | 322 | 4.3 | 9.6 | 0.00 | 0.00 | 0.00 | 50 | 1019.0 |
| 20260902162100 | 94 | 331 | 3.5 | 7.8 | 0.00 | 0.00 | 0.00 | 50 | 1019.0 |
| 20260902161559 | 94 | 269 | 3.5 | 8.7 | 0.00 | 0.00 | 0.00 | 50 | 1019.0 |
| 20260902161058 | 94 | 323 | 2.6 | 8.7 | 0.00 | 0.00 | 0.00 | 51 | 1019.1 |
| 20260902160509 | 94 | 281 | 1.7 | 10.4 | 0.00 | 0.00 | 0.00 | 52 | 1019.1 |
| 20260902160009 | 94 | 309 | 2.6 | 10.4 | 0.00 | 0.00 | 0.00 | 54 | 1019.1 |
| 20260902155505 | 94 | 307 | 3.5 | 7.8 | 0.00 | 0.00 | 0.00 | 53 | 1019.2 |
| 20260902155007 | 94 | 309 | 0.9 | 9.6 | 0.00 | 0.00 | 0.00 | 56 | 1019.1 |
| 20260902154507 | 93 | 341 | 3.5 | 9.6 | 0.00 | 0.00 | 0.00 | 55 | 1019.1 |
| 20260902154001 | 92 | 238 | 0.9 | 7.8 | 0.00 | 0.00 | 0.00 | 57 | 1019.1 |
| 20260902153600 | 92 | 171 | 2.6 | 10.4 | 0.00 | 0.00 | 0.00 | 57 | 1019.3 |
| 20260902153058 | 92 | 207 | 2.6 | 10.4 | 0.00 | 0.00 | 0.00 | 57 | 1019.2 |
| 20260902152556 | 91 | 263 | 1.7 | 9.6 | 0.00 | 0.00 | 0.00 | 59 | 1019.3 |
| 20260902152055 | 90 | 138 | 5.2 | 9.6 | 0.00 | 0.00 | 0.00 | 59 | 1019.4 |
| 20260902151558 | 89 | 138 | 2.6 | 9.6 | 0.00 | 0.00 | 0.00 | 61 | 1019.3 |
| 20260902151057 | 90 | 301 | 2.6 | 7.8 | 0.00 | 0.00 | 0.00 | 60 | 1019.5 |
| 20260902150506 | 90 | 325 | 0.9 | 7.8 | 0.00 | 0.00 | 0.00 | 59 | 1019.4 |
| 20260902150009 | 90 | 272 | 2.6 | 7.8 | 0.00 | 0.00 | 0.00 | 61 | 1019.4 |
| 20260902145504 | 90 | 242 | 0.9 | 6.1 | 0.00 | 0.00 | 0.00 | 61 | 1019.4 |
| 20260902145001 | 90 | 24 | 3.5 | 7.8 | 0.00 | 0.00 | 0.00 | 60 | 1019.3 |
| 20260902144602 | 89 | 180 | 1.7 | 7.8 | 0.00 | 0.00 | 0.00 | 62 | 1019.4 |
| 20260902144059 | 89 | 223 | 0.9 | 6.1 | 0.00 | 0.00 | 0.00 | 63 | 1019.4 |
| 20260902143558 | 88 | 216 | 1.7 | 7.8 | 0.00 | 0.00 | 0.00 | 63 | 1019.5 |
| 20260902143057 | 88 | 156 | 2.6 | 7.8 | 0.00 | 0.00 | 0.00 | 64 | 1019.4 |
| 20260902142556 | 88 | 177 | 1.7 | 6.1 | 0.00 | 0.00 | 0.00 | 66 | 1019.5 |
| 20260902142054 | 88 | 232 | 1.7 | 5.2 | 0.00 | 0.00 | 0.00 | 66 | 1019.5 |
| 20260902141554 | 87 | 288 | 1.7 | 5.2 | 0.00 | 0.00 | 0.00 | 67 | 1019.5 |
| 20260902141051 | 87 | 313 | 0.9 | 4.3 | 0.00 | 0.00 | 0.00 | 67 | 1019.4 |
| 20260902140502 | 86 | 209 | 0.9 | 5.2 | 0.00 | 0.00 | 0.00 | 69 | 1019.6 |
| 20260902140108 | 85 | 192 | 1.7 | 5.2 | 0.00 | 0.00 | 0.00 | 70 | 1019.7 |
| 20260902135558 | 84 | 173 | 0.9 | 5.2 | 0.00 | 0.00 | 0.00 | 70 | 1019.7 |
| 20260902135056 | 84 | 171 | 0.9 | 5.2 | 0.00 | 0.00 | 0.00 | 70 | 1019.7 |
| 20260902134555 | 83 | 159 | 0.9 | 6.1 | 0.00 | 0.00 | 0.00 | 73 | 1019.7 |
| 20260902134053 | 81 | 228 | 0.0 | 3.5 | 0.00 | 0.00 | 0.00 | 76 | 1019.8 |
| 20260902133552 | 79 | 307 | 0.0 | 4.3 | 0.00 | 0.00 | 0.00 | 82 | 1019.8 |
| 20260902133101 | 76 | 332 | 0.9 | 4.3 | 0.00 | 0.00 | 0.00 | 89 | 1019.8 |
| 20260902132550 | 74 | 186 | 0.0 | 1.7 | 0.00 | 0.00 | 0.00 | 92 | 1019.8 |
| 20260902132048 | 73 | 221 | 0.0 | 1.7 | 0.00 | 0.00 | 0.00 | 93 | 1019.9 |
| 20260902131557 | 72 | 187 | 0.0 | 0.9 | 0.00 | 0.00 | 0.00 | 93 | 1019.9 |
| 20260902131048 | 72 | 166 | 0.0 | 0.9 | 0.00 | 0.00 | 0.00 | 94 | 1019.9 |
| 20260902130650 | 71 | 163 | 0.0 | 0.9 | 0.00 | 0.00 | 0.00 | 94 | 1019.8 |
| 20260902130054 | 71 | 163 | 0.0 | 0.0 | 0.00 | 0.00 | 0.00 | 94 | 1019.8 |
| 20260902125555 | 70 | 163 | 0.0 | 0.0 | 0.00 | 0.00 | 0.00 | 94 | 1019.8 |
| 20260902125051 | 70 | 163 | 0.0 | 0.0 | 0.00 | 0.00 | 0.00 | 95 | 1019.8 |
| 20260902124551 | 69 | 163 | 0.0 | 0.0 | 0.00 | 0.00 | 0.00 | 95 | 1019.9 |
| 20260902124049 | 69 | 163 | 0.0 | 0.0 | 0.00 | 0.00 | 0.00 | 95 | 1019.9 |
| 20260902123550 | 69 | 163 | 0.0 | 0.0 | 0.00 | 0.00 | 0.00 | 94 | 1019.9 |
| 20260902123047 | 69 | 163 | 0.0 | 0.0 | 0.00 | 0.00 | 0.00 | 94 | 1019.8 |
| 20260902122547 | 69 | 163 | 0.0 | 0.0 | 0.00 | 0.00 | 0.00 | 94 | 1019.8 |
| 20260902122045 | 69 | 163 | 0.0 | 0.0 | 0.00 | 0.00 | 0.00 | 95 | 1019.6 |
| 20260902121552 | 69 | 163 | 0.0 | 0.0 | 0.00 | 0.00 | 0.00 | 95 | 1019.7 |
| 20260902121045 | 68 | 163 | 0.0 | 0.0 | 0.00 | 0.00 | 0.00 | 95 | 1019.6 |
| 20260902120645 | 68 | 163 | 0.0 | 0.0 | 0.00 | 0.00 | 0.00 | 95 | 1019.6 |
| 20260902120045 | 68 | 155 | 0.0 | 0.0 | 0.00 | 0.00 | 0.00 | 95 | 1019.5 |
| 20260902115545 | 68 | 155 | 0.0 | 0.0 | 0.00 | 0.00 | 0.00 | 95 | 1019.5 |
| 20260902115044 | 68 | 155 | 0.0 | 0.0 | 0.00 | 0.00 | 0.00 | 95 | 1019.3 |
| 20260902114550 | 68 | 155 | 0.0 | 0.0 | 0.00 | 0.00 | 0.00 | 94 | 1019.3 |
| 20260902114043 | 68 | 155 | 0.0 | 0.0 | 0.00 | 0.00 | 0.00 | 94 | 1019.2 |
| 20260902113542 | 68 | 155 | 0.0 | 0.0 | 0.00 | 0.00 | 0.00 | 94 | 1019.2 |
| 20260902113053 | 68 | 155 | 0.0 | 0.0 | 0.00 | 0.00 | 0.00 | 94 | 1019.2 |
| 20260902112540 | 69 | 155 | 0.0 | 0.0 | 0.00 | 0.00 | 0.00 | 94 | 1019.1 |
| 20260902112039 | 69 | 155 | 0.0 | 0.0 | 0.00 | 0.00 | 0.00 | 94 | 1019.0 |
| 20260902111539 | 69 | 155 | 0.0 | 0.0 | 0.00 | 0.00 | 0.00 | 94 | 1018.8 |
| 20260902111038 | 69 | 155 | 0.0 | 0.0 | 0.00 | 0.00 | 0.00 | 94 | 1018.8 |
| 20260902110640 | 69 | 155 | 0.0 | 0.0 | 0.00 | 0.00 | 0.00 | 94 | 1018.8 |
| 20260902110101 | 69 | 155 | 0.0 | 0.0 | 0.00 | 0.00 | 0.00 | 94 | 1018.7 |
| 20260902105559 | 69 | 155 | 0.0 | 0.0 | 0.00 | 0.00 | 0.00 | 94 | 1018.7 |
| 20260902105059 | 69 | 155 | 0.0 | 0.0 | 0.00 | 0.00 | 0.00 | 94 | 1018.6 |
| 20260902104611 | 69 | 155 | 0.0 | 0.0 | 0.00 | 0.00 | 0.00 | 94 | 1018.7 |
| 20260902104057 | 69 | 155 | 0.0 | 0.0 | 0.00 | 0.00 | 0.00 | 94 | 1018.6 |
| 20260902103557 | 69 | 155 | 0.0 | 0.0 | 0.00 | 0.00 | 0.00 | 94 | 1018.5 |
| 20260902103104 | 69 | 155 | 0.0 | 0.0 | 0.00 | 0.00 | 0.00 | 93 | 1018.7 |
| 20260902102558 | 69 | 155 | 0.0 | 0.0 | 0.00 | 0.00 | 0.00 | 93 | 1018.6 |
| 20260902102056 | 69 | 155 | 0.0 | 0.0 | 0.00 | 0.00 | 0.00 | 93 | 1018.6 |
| 20260902101556 | 70 | 155 | 0.0 | 0.0 | 0.00 | 0.00 | 0.00 | 93 | 1018.6 |
| 20260902101055 | 70 | 155 | 0.0 | 0.0 | 0.00 | 0.00 | 0.00 | 93 | 1018.5 |
| 20260902100654 | 70 | 155 | 0.0 | 0.0 | 0.00 | 0.00 | 0.00 | 92 | 1018.6 |
| 20260902095558 | 70 | 155 | 0.0 | 0.0 | 0.00 | 0.00 | 0.00 | 92 | 1018.5 |
| 20260902095056 | 70 | 155 | 0.0 | 0.0 | 0.00 | 0.00 | 0.00 | 92 | 1018.5 |
| 20260902094557 | 70 | 155 | 0.0 | 0.0 | 0.00 | 0.00 | 0.00 | 92 | 1018.6 |
| 20260902094056 | 70 | 155 | 0.0 | 0.0 | 0.00 | 0.00 | 0.00 | 91 | 1018.6 |
| 20260902093555 | 71 | 155 | 0.0 | 0.0 | 0.00 | 0.00 | 0.00 | 91 | 1018.6 |
| 20260902093055 | 71 | 155 | 0.0 | 0.0 | 0.00 | 0.00 | 0.00 | 91 | 1018.7 |
| 20260902092554 | 71 | 155 | 0.0 | 0.0 | 0.00 | 0.00 | 0.00 | 91 | 1018.7 |
| 20260902092055 | 71 | 155 | 0.0 | 0.0 | 0.00 | 0.00 | 0.00 | 91 | 1018.7 |
| 20260902091604 | 71 | 155 | 0.0 | 0.0 | 0.00 | 0.00 | 0.00 | 91 | 1018.6 |
| 20260902091053 | 71 | 155 | 0.0 | 0.0 | 0.00 | 0.00 | 0.00 | 90 | 1018.6 |
| 20260902090654 | 71 | 155 | 0.0 | 0.0 | 0.00 | 0.00 | 0.00 | 90 | 1018.6 |
| 20260902090058 | 71 | 155 | 0.0 | 0.0 | 0.00 | 0.00 | 0.00 | 90 | 1018.6 |
| 20260902085551 | 71 | 155 | 0.0 | 0.0 | 0.00 | 0.00 | 0.00 | 89 | 1018.4 |
| 20260902085051 | 71 | 155 | 0.0 | 0.0 | 0.00 | 0.00 | 0.00 | 89 | 1018.5 |
| 20260902084557 | 71 | 155 | 0.0 | 0.0 | 0.00 | 0.00 | 0.00 | 90 | 1018.4 |
| 20260902084051 | 72 | 155 | 0.0 | 0.0 | 0.00 | 0.00 | 0.00 | 89 | 1018.4 |
| 20260902083551 | 72 | 155 | 0.0 | 0.0 | 0.00 | 0.00 | 0.00 | 89 | 1018.3 |
| 20260902083111 | 72 | 155 | 0.0 | 0.0 | 0.00 | 0.00 | 0.00 | 89 | 1018.3 |
| 20260902082550 | 72 | 155 | 0.0 | 0.0 | 0.00 | 0.00 | 0.00 | 89 | 1018.3 |
| 20260902082050 | 72 | 155 | 0.0 | 0.0 | 0.00 | 0.00 | 0.00 | 89 | 1018.4 |
| 20260902081550 | 72 | 141 | 0.0 | 0.9 | 0.00 | 0.00 | 0.00 | 89 | 1018.4 |
| 20260902081050 | 72 | 153 | 0.0 | 0.0 | 0.00 | 0.00 | 0.00 | 88 | 1018.4 |
| 20260902080650 | 72 | 153 | 0.0 | 0.0 | 0.00 | 0.00 | 0.00 | 88 | 1018.5 |
| 20260902080043 | 72 | 153 | 0.0 | 0.9 | 0.00 | 0.00 | 0.00 | 88 | 1018.4 |
| 20260902075546 | 73 | 153 | 0.0 | 0.9 | 0.00 | 0.00 | 0.00 | 88 | 1018.4 |
| 20260902075042 | 73 | 153 | 0.0 | 0.0 | 0.00 | 0.00 | 0.00 | 88 | 1018.2 |
| 20260902074542 | 73 | 153 | 0.0 | 1.7 | 0.00 | 0.00 | 0.00 | 88 | 1018.4 |
| 20260902074041 | 73 | 153 | 0.0 | 1.7 | 0.00 | 0.00 | 0.00 | 88 | 1018.2 |
| 20260902073540 | 73 | 150 | 0.0 | 0.0 | 0.00 | 0.00 | 0.00 | 88 | 1018.2 |
| 20260902073041 | 73 | 177 | 0.0 | 0.0 | 0.00 | 0.00 | 0.00 | 88 | 1018.4 |
| 20260902072544 | 73 | 177 | 0.0 | 1.7 | 0.00 | 0.00 | 0.00 | 88 | 1018.4 |
| 20260902072040 | 73 | 142 | 0.0 | 3.5 | 0.00 | 0.00 | 0.00 | 87 | 1018.5 |
| 20260902071540 | 73 | 163 | 0.0 | 3.5 | 0.00 | 0.00 | 0.00 | 88 | 1018.4 |
| 20260902071039 | 73 | 134 | 0.0 | 5.2 | 0.00 | 0.00 | 0.00 | 88 | 1018.4 |
| 20260902070639 | 73 | 130 | 0.9 | 5.2 | 0.00 | 0.00 | 0.00 | 88 | 1018.3 |
| 20260902070101 | 73 | 139 | 0.9 | 6.1 | 0.00 | 0.00 | 0.00 | 88 | 1018.2 |
| 20260902065600 | 73 | 188 | 0.9 | 6.1 | 0.00 | 0.00 | 0.00 | 88 | 1018.4 |
| 20260902065059 | 73 | 147 | 0.0 | 6.1 | 0.00 | 0.00 | 0.00 | 89 | 1018.4 |
| 20260902064559 | 73 | 159 | 1.7 | 6.1 | 0.00 | 0.00 | 0.00 | 89 | 1018.4 |
| 20260902064059 | 73 | 195 | 0.9 | 4.3 | 0.00 | 0.00 | 0.00 | 89 | 1018.4 |
| 20260902063559 | 73 | 159 | 0.9 | 4.3 | 0.00 | 0.00 | 0.00 | 89 | 1018.4 |
| 20260902063058 | 73 | 155 | 0.9 | 4.3 | 0.00 | 0.00 | 0.00 | 89 | 1018.4 |
| 20260902062559 | 73 | 171 | 1.7 | 4.3 | 0.00 | 0.00 | 0.00 | 89 | 1018.4 |
| 20260902062058 | 73 | 152 | 0.9 | 4.3 | 0.00 | 0.00 | 0.00 | 89 | 1018.4 |
| 20260902061558 | 73 | 141 | 0.9 | 2.6 | 0.00 | 0.00 | 0.00 | 88 | 1018.5 |
| 20260902061057 | 73 | 120 | 0.0 | 1.7 | 0.00 | 0.00 | 0.00 | 88 | 1018.5 |
| 20260902060658 | 73 | 155 | 0.0 | 2.6 | 0.00 | 0.00 | 0.00 | 88 | 1018.4 |
| 20260902060105 | 73 | 173 | 0.9 | 4.3 | 0.00 | 0.00 | 0.00 | 88 | 1018.3 |
| 20260902055556 | 74 | 129 | 0.0 | 4.3 | 0.00 | 0.00 | 0.00 | 88 | 1018.3 |
| 20260902055056 | 74 | 122 | 0.9 | 2.6 | 0.00 | 0.00 | 0.00 | 88 | 1018.3 |
| 20260902054606 | 74 | 184 | 0.9 | 3.5 | 0.00 | 0.00 | 0.00 | 89 | 1018.4 |
| 20260902054054 | 74 | 160 | 0.9 | 3.5 | 0.00 | 0.00 | 0.00 | 88 | 1018.2 |
| 20260902053554 | 74 | 135 | 0.9 | 4.3 | 0.00 | 0.00 | 0.00 | 89 | 1018.2 |
| 20260902053105 | 74 | 127 | 1.7 | 4.3 | 0.00 | 0.00 | 0.00 | 89 | 1018.1 |
| 20260902052553 | 74 | 170 | 1.7 | 5.2 | 0.00 | 0.00 | 0.00 | 90 | 1018.1 |
| 20260902052053 | 74 | 126 | 1.7 | 5.2 | 0.00 | 0.00 | 0.00 | 90 | 1018.0 |
| 20260902051602 | 74 | 136 | 0.0 | 4.3 | 0.00 | 0.00 | 0.00 | 90 | 1018.1 |
| 20260902051052 | 74 | 164 | 0.0 | 4.3 | 0.00 | 0.00 | 0.00 | 89 | 1018.0 |
| 20260902050652 | 74 | 155 | 0.0 | 3.5 | 0.00 | 0.00 | 0.00 | 89 | 1018.1 |
| 20260902050058 | 74 | 178 | 0.9 | 3.5 | 0.00 | 0.00 | 0.00 | 89 | 1017.9 |
| 20260902045552 | 74 | 175 | 0.0 | 0.0 | 0.00 | 0.00 | 0.00 | 89 | 1017.9 |
| 20260902045050 | 74 | 154 | 0.0 | 0.0 | 0.00 | 0.00 | 0.00 | 89 | 1017.9 |
| 20260902044551 | 74 | 155 | 0.0 | 1.7 | 0.00 | 0.00 | 0.00 | 89 | 1017.9 |
| 20260902044050 | 74 | 191 | 0.0 | 1.7 | 0.00 | 0.00 | 0.00 | 89 | 1017.8 |
| 20260902043550 | 74 | 164 | 0.0 | 2.6 | 0.00 | 0.00 | 0.00 | 89 | 1017.8 |
| 20260902043058 | 75 | 193 | 0.0 | 2.6 | 0.00 | 0.00 | 0.00 | 89 | 1017.8 |
| 20260902042551 | 75 | 173 | 0.0 | 2.6 | 0.00 | 0.00 | 0.00 | 88 | 1017.7 |
| 20260902042051 | 75 | 178 | 0.0 | 0.0 | 0.00 | 0.00 | 0.00 | 88 | 1017.9 |
| 20260902041550 | 75 | 185 | 0.0 | 0.0 | 0.00 | 0.00 | 0.00 | 88 | 1017.8 |
| 20260902041050 | 75 | 213 | 0.0 | 0.0 | 0.00 | 0.00 | 0.00 | 88 | 1017.8 |
| 20260902040650 | 75 | 196 | 0.0 | 0.0 | 0.00 | 0.00 | 0.00 | 88 | 1017.7 |
| 20260902040049 | 75 | 176 | 0.0 | 0.0 | 0.00 | 0.00 | 0.00 | 89 | 1017.8 |
| 20260902035546 | 75 | 166 | 0.0 | 0.0 | 0.00 | 0.00 | 0.00 | 88 | 1017.7 |
| 20260902035046 | 75 | 187 | 0.0 | 0.9 | 0.00 | 0.00 | 0.00 | 89 | 1017.7 |
| 20260902034546 | 75 | 170 | 0.0 | 0.9 | 0.00 | 0.00 | 0.00 | 88 | 1017.7 |
| 20260902034045 | 76 | 179 | 0.0 | 1.7 | 0.00 | 0.00 | 0.00 | 88 | 1017.8 |
| 20260902033545 | 76 | 177 | 0.0 | 2.6 | 0.00 | 0.00 | 0.00 | 88 | 1017.8 |
| 20260902033046 | 76 | 185 | 0.0 | 2.6 | 0.00 | 0.00 | 0.00 | 88 | 1017.8 |
| 20260902032545 | 76 | 172 | 0.0 | 3.5 | 0.00 | 0.00 | 0.00 | 88 | 1017.8 |
| 20260902032045 | 76 | 177 | 0.0 | 3.5 | 0.00 | 0.00 | 0.00 | 87 | 1017.8 |
| 20260902031545 | 77 | 169 | 0.0 | 2.6 | 0.00 | 0.00 | 0.00 | 86 | 1017.7 |
| 20260902031045 | 77 | 191 | 0.0 | 2.6 | 0.00 | 0.00 | 0.00 | 86 | 1017.7 |
| 20260902030646 | 77 | 163 | 0.0 | 0.9 | 0.00 | 0.00 | 0.00 | 86 | 1017.7 |
| 20260902030042 | 77 | 180 | 0.0 | 0.9 | 0.00 | 0.00 | 0.00 | 86 | 1017.5 |
| 20260902025542 | 77 | 157 | 0.0 | 0.0 | 0.00 | 0.00 | 0.00 | 86 | 1017.4 |
| 20260902025042 | 77 | 157 | 0.0 | 2.6 | 0.00 | 0.00 | 0.00 | 87 | 1017.3 |
| 20260902024542 | 76 | 171 | 0.0 | 2.6 | 0.00 | 0.00 | 0.00 | 87 | 1017.3 |
| 20260902024044 | 77 | 183 | 0.0 | 3.5 | 0.00 | 0.00 | 0.00 | 87 | 1017.3 |
| 20260902023544 | 77 | 136 | 0.0 | 3.5 | 0.00 | 0.00 | 0.00 | 87 | 1017.5 |
| 20260902023046 | 77 | 157 | 0.0 | 4.3 | 0.00 | 0.00 | 0.00 | 86 | 1017.4 |
| 20260902022542 | 77 | 168 | 0.0 | 1.7 | 0.00 | 0.00 | 0.00 | 86 | 1017.2 |
| 20260902022041 | 77 | 177 | 0.0 | 2.6 | 0.00 | 0.00 | 0.00 | 86 | 1017.2 |
| 20260902021540 | 77 | 165 | 0.0 | 2.6 | 0.00 | 0.00 | 0.00 | 85 | 1017.1 |
| 20260902021044 | 78 | 161 | 0.0 | 0.9 | 0.00 | 0.00 | 0.00 | 85 | 1017.1 |
| 20260902020641 | 78 | 150 | 0.0 | 1.7 | 0.00 | 0.00 | 0.00 | 84 | 1017.1 |
| 20260902020039 | 78 | 150 | 0.0 | 1.7 | 0.00 | 0.00 | 0.00 | 84 | 1017.1 |
| 20260902015539 | 78 | 180 | 0.0 | 0.0 | 0.00 | 0.00 | 0.00 | 84 | 1017.0 |
| 20260902015038 | 78 | 142 | 0.0 | 2.6 | 0.00 | 0.00 | 0.00 | 84 | 1017.1 |
| 20260902014538 | 78 | 149 | 0.0 | 3.5 | 0.00 | 0.00 | 0.00 | 84 | 1017.0 |
| 20260902014039 | 78 | 130 | 0.0 | 2.6 | 0.00 | 0.00 | 0.00 | 85 | 1016.9 |
| 20260902013538 | 78 | 164 | 0.0 | 4.3 | 0.00 | 0.00 | 0.00 | 85 | 1016.8 |
| 20260902013038 | 78 | 152 | 0.0 | 4.3 | 0.00 | 0.00 | 0.00 | 84 | 1016.8 |
| 20260902012537 | 78 | 125 | 0.0 | 2.6 | 0.00 | 0.00 | 0.00 | 84 | 1016.8 |
| 20260902012037 | 79 | 142 | 0.0 | 2.6 | 0.00 | 0.00 | 0.00 | 83 | 1016.7 |
| 20260902011550 | 79 | 165 | 0.0 | 2.6 | 0.00 | 0.00 | 0.00 | 82 | 1016.7 |
| 20260902011039 | 79 | 134 | 0.0 | 2.6 | 0.00 | 0.00 | 0.00 | 82 | 1016.6 |
| 20260902010638 | 80 | 113 | 0.0 | 2.6 | 0.00 | 0.00 | 0.00 | 81 | 1016.7 |
| 20260902010056 | 80 | 143 | 0.0 | 2.6 | 0.00 | 0.00 | 0.00 | 81 | 1016.7 |
| 20260902005556 | 80 | 166 | 0.0 | 2.6 | 0.00 | 0.00 | 0.00 | 80 | 1016.4 |
| 20260902005055 | 81 | 115 | 0.0 | 2.6 | 0.00 | 0.00 | 0.00 | 79 | 1016.5 |
| 20260902004555 | 82 | 96 | 0.0 | 2.6 | 0.00 | 0.00 | 0.00 | 77 | 1016.5 |
| 20260902004059 | 82 | 164 | 0.0 | 4.3 | 0.00 | 0.00 | 0.00 | 76 | 1016.4 |
| 20260902003556 | 83 | 160 | 0.0 | 4.3 | 0.00 | 0.00 | 0.00 | 76 | 1016.4 |
| 20260902003100 | 84 | 184 | 0.0 | 1.7 | 0.00 | 0.00 | 0.00 | 74 | 1016.4 |
| 20260902002557 | 84 | 178 | 0.0 | 2.6 | 0.00 | 0.00 | 0.00 | 73 | 1016.5 |
| 20260902002054 | 84 | 157 | 0.0 | 2.6 | 0.00 | 0.00 | 0.00 | 73 | 1016.5 |
| 20260902001558 | 84 | 152 | 0.0 | 5.2 | 0.00 | 0.00 | 0.00 | 74 | 1016.4 |
| 20260902001054 | 85 | 47 | 0.0 | 5.2 | 0.00 | 0.00 | 0.00 | 71 | 1016.4 |
| 20260902000654 | 86 | 161 | 0.9 | 5.2 | 0.00 | 0.00 | 0.00 | 70 | 1016.4 |
| 20260902000056 | 87 | 171 | 0.0 | 2.6 | 0.00 | 0.00 | 0.00 | 67 | 1016.5 |
| 20260901235552 | 87 | 180 | 0.0 | 5.2 | 0.00 | 0.00 | 0.00 | 67 | 1016.5 |
| 20260901235051 | 86 | 248 | 0.9 | 7.0 | 0.00 | 0.00 | 0.00 | 70 | 1016.5 |
| 20260901234559 | 86 | 109 | 0.9 | 3.5 | 0.00 | 0.00 | 0.00 | 71 | 1016.5 |
| 20260901234051 | 87 | 53 | 0.9 | 5.2 | 0.00 | 0.00 | 0.00 | 70 | 1016.5 |
| 20260901233551 | 88 | 97 | 0.9 | 5.2 | 0.00 | 0.00 | 0.00 | 65 | 1016.5 |
| 20260901233051 | 89 | 221 | 1.7 | 7.8 | 0.00 | 0.00 | 0.00 | 64 | 1016.6 |
| 20260901232551 | 89 | 79 | 1.7 | 7.8 | 0.00 | 0.00 | 0.00 | 65 | 1016.5 |
| 20260901232051 | 89 | 164 | 1.7 | 7.0 | 0.00 | 0.00 | 0.00 | 63 | 1016.6 |
| 20260901231608 | 89 | 106 | 1.7 | 7.0 | 0.00 | 0.00 | 0.00 | 65 | 1016.8 |
| 20260901231050 | 89 | 57 | 0.9 | 7.0 | 0.00 | 0.00 | 0.00 | 64 | 1016.7 |
| 20260901230652 | 88 | 88 | 1.7 | 6.1 | 0.00 | 0.00 | 0.00 | 64 | 1016.8 |
| 20260901230106 | 88 | 117 | 0.9 | 4.3 | 0.00 | 0.00 | 0.00 | 65 | 1016.7 |
| 20260901225551 | 89 | 113 | 0.9 | 7.8 | 0.00 | 0.00 | 0.00 | 64 | 1016.8 |
| 20260901225049 | 89 | 103 | 1.7 | 7.8 | 0.00 | 0.00 | 0.00 | 62 | 1016.8 |
| 20260901224551 | 90 | 93 | 1.7 | 7.0 | 0.00 | 0.00 | 0.00 | 63 | 1016.8 |
| 20260901224048 | 90 | 37 | 2.6 | 7.0 | 0.00 | 0.00 | 0.00 | 62 | 1016.8 |
| 20260901223552 | 90 | 64 | 1.7 | 6.1 | 0.00 | 0.00 | 0.00 | 61 | 1016.7 |
| 20260901223050 | 90 | 65 | 0.9 | 9.6 | 0.00 | 0.00 | 0.00 | 62 | 1016.8 |
| 20260901222547 | 90 | 104 | 0.0 | 9.6 | 0.00 | 0.00 | 0.00 | 62 | 1016.8 |
| 20260901222047 | 90 | 43 | 1.7 | 9.6 | 0.00 | 0.00 | 0.00 | 62 | 1016.7 |
| 20260901221609 | 91 | 87 | 1.7 | 9.6 | 0.00 | 0.00 | 0.00 | 58 | 1016.7 |
| 20260901221048 | 92 | 130 | 3.5 | 9.6 | 0.00 | 0.00 | 0.00 | 57 | 1016.7 |
| 20260901220648 | 92 | 85 | 3.5 | 8.7 | 0.00 | 0.00 | 0.00 | 55 | 1016.7 |
| 20260901220049 | 93 | 131 | 4.3 | 7.8 | 0.00 | 0.00 | 0.00 | 54 | 1016.4 |
| 20260901215542 | 93 | 91 | 1.7 | 5.2 | 0.00 | 0.00 | 0.00 | 58 | 1016.4 |
| 20260901215041 | 93 | 117 | 1.7 | 7.8 | 0.00 | 0.00 | 0.00 | 57 | 1016.3 |
| 20260901214541 | 92 | 144 | 0.9 | 7.8 | 0.00 | 0.00 | 0.00 | 59 | 1016.3 |
| 20260901214041 | 93 | 12 | 1.7 | 6.1 | 0.00 | 0.00 | 0.00 | 54 | 1016.3 |
| 20260901213541 | 93 | 247 | 0.9 | 6.1 | 0.00 | 0.00 | 0.00 | 54 | 1016.3 |
| 20260901213059 | 93 | 116 | 1.7 | 7.0 | 0.00 | 0.00 | 0.00 | 54 | 1016.4 |
| 20260901212541 | 93 | 86 | 0.9 | 7.0 | 0.00 | 0.00 | 0.00 | 52 | 1016.4 |
| 20260901212041 | 93 | 96 | 2.6 | 6.1 | 0.00 | 0.00 | 0.00 | 52 | 1016.3 |
| 20260901211541 | 94 | 110 | 1.7 | 7.8 | 0.00 | 0.00 | 0.00 | 53 | 1016.4 |
| 20260901211039 | 95 | 92 | 3.5 | 7.8 | 0.00 | 0.00 | 0.00 | 47 | 1016.4 |
| 20260901210501 | 95 | 98 | 2.6 | 8.7 | 0.00 | 0.00 | 0.00 | 48 | 1016.4 |
| 20260901210118 | 95 | 96 | 3.5 | 8.7 | 0.00 | 0.00 | 0.00 | 48 | 1016.6 |
| 20260901210002 | 95 | 92 | 2.6 | 8.7 | 0.00 | 0.00 | 0.00 | 50 | 1016.4 |
| 20260901205603 | 95 | 122 | 1.7 | 7.0 | 0.00 | 0.00 | 0.00 | 50 | 1016.6 |
| 20260901205059 | 96 | 56 | 1.7 | 6.1 | 0.00 | 0.00 | 0.00 | 47 | 1016.6 |
| 20260901204609 | 96 | 130 | 2.6 | 7.0 | 0.00 | 0.00 | 0.00 | 48 | 1016.7 |
| 20260901204054 | 96 | 124 | 0.9 | 8.7 | 0.00 | 0.00 | 0.00 | 47 | 1016.7 |
| 20260901203558 | 96 | 47 | 3.5 | 8.7 | 0.00 | 0.00 | 0.00 | 47 | 1016.7 |
| 20260901203059 | 95 | 130 | 0.9 | 11.3 | 0.00 | 0.00 | 0.00 | 50 | 1016.8 |
| 20260901202553 | 95 | 104 | 2.6 | 11.3 | 0.00 | 0.00 | 0.00 | 46 | 1016.9 |
| 20260901202056 | 96 | 138 | 1.7 | 10.4 | 0.00 | 0.00 | 0.00 | 49 | 1016.8 |
| 20260901201557 | 97 | 61 | 4.3 | 10.4 | 0.00 | 0.00 | 0.00 | 47 | 1016.9 |
| 20260901201052 | 96 | 94 | 2.6 | 8.7 | 0.00 | 0.00 | 0.00 | 47 | 1016.9 |
| 20260901200651 | 96 | 45 | 2.6 | 8.7 | 0.00 | 0.00 | 0.00 | 45 | 1017.0 |
| 20260901200117 | 97 | 84 | 3.5 | 8.7 | 0.00 | 0.00 | 0.00 | 46 | 1017.1 |
| 20260901195557 | 97 | 52 | 3.5 | 8.7 | 0.00 | 0.00 | 0.00 | 44 | 1017.1 |
| 20260901195057 | 97 | 58 | 0.0 | 7.8 | 0.00 | 0.00 | 0.00 | 46 | 1017.2 |
| 20260901194608 | 95 | 87 | 2.6 | 8.7 | 0.00 | 0.00 | 0.00 | 45 | 1017.3 |
| 20260901194059 | 97 | 59 | 0.9 | 8.7 | 0.00 | 0.00 | 0.00 | 47 | 1017.3 |
| 20260901193553 | 98 | 360 | 0.9 | 4.3 | 0.00 | 0.00 | 0.00 | 44 | 1017.4 |
| 20260901193054 | 97 | 49 | 1.7 | 3.5 | 0.00 | 0.00 | 0.00 | 43 | 1017.5 |
| 20260901192557 | 96 | 196 | 0.0 | 4.3 | 0.00 | 0.00 | 0.00 | 45 | 1017.5 |
| 20260901192054 | 95 | 313 | 1.7 | 4.3 | 0.00 | 0.00 | 0.00 | 43 | 1017.6 |
| 20260901191628 | 97 | 196 | 0.0 | 3.5 | 0.00 | 0.00 | 0.00 | 42 | 1017.6 |
| 20260901191051 | 96 | 26 | 0.0 | 3.5 | 0.00 | 0.00 | 0.00 | 49 | 1017.6 |
| 20260901190648 | 95 | 38 | 0.9 | 3.5 | 0.00 | 0.00 | 0.00 | 51 | 1017.7 |
| 20260901190058 | 96 | 355 | 0.9 | 5.2 | 0.00 | 0.00 | 0.00 | 44 | 1017.7 |
| 20260901185549 | 95 | 147 | 0.9 | 5.2 | 0.00 | 0.00 | 0.00 | 47 | 1017.7 |
| 20260901185049 | 93 | 46 | 0.9 | 3.5 | 0.00 | 0.00 | 0.00 | 54 | 1017.8 |
| 20260901184549 | 92 | 32 | 0.9 | 2.6 | 0.00 | 0.00 | 0.00 | 51 | 1017.7 |
| 20260901184048 | 94 | 78 | 0.9 | 2.6 | 0.00 | 0.00 | 0.00 | 50 | 1017.8 |
| 20260901183551 | 95 | 31 | 0.0 | 2.6 | 0.00 | 0.00 | 0.00 | 43 | 1017.9 |
| 20260901183053 | 95 | 111 | 0.9 | 4.3 | 0.00 | 0.00 | 0.00 | 42 | 1017.9 |
| 20260901182546 | 97 | 5 | 0.9 | 8.7 | 0.00 | 0.00 | 0.00 | 41 | 1018.0 |
| 20260901182046 | 95 | 284 | 2.6 | 8.7 | 0.00 | 0.00 | 0.00 | 48 | 1018.1 |
| 20260901181552 | 94 | 311 | 2.6 | 6.1 | 0.00 | 0.00 | 0.00 | 47 | 1018.2 |
| 20260901181046 | 94 | 126 | 0.0 | 1.7 | 0.00 | 0.00 | 0.00 | 46 | 1018.3 |
| 20260901180645 | 96 | 131 | 0.0 | 7.0 | 0.00 | 0.00 | 0.00 | 47 | 1018.3 |
| 20260901180049 | 96 | 299 | 0.9 | 7.0 | 0.00 | 0.00 | 0.00 | 43 | 1018.3 |
| 20260901175549 | 96 | 321 | 1.7 | 7.0 | 0.00 | 0.00 | 0.00 | 43 | 1018.4 |
| 20260901175049 | 96 | 299 | 2.6 | 4.3 | 0.00 | 0.00 | 0.00 | 44 | 1018.5 |
| 20260901174547 | 94 | 236 | 0.9 | 3.5 | 0.00 | 0.00 | 0.00 | 45 | 1018.6 |